Regional Weather Roundup
Issued by NWS

Home | Current Version | Previous Version | Text Only | Print | Product List | Glossary Off
Versions: 1 2 3 4 5 6 7 8 9 10 11 12 13 14 15 16 17 18 19 20 21 22 23 24 25 26 27 28 29 30 31 32 33 34 35 36 37 38 39 40 41 42 43 44 45 46 47 48 49 50

000
ASUS44 KMEG 280400
RWRTN
TENNESSEE HOURLY STATE WEATHER ROUNDUP
NATIONAL WEATHER SERVICE MEMPHIS TN
1100 PM CDT THU AUG 27 2015

TNZ002-004-019-021-049-052-054-088>092-280500-
WEST TENNESSEE

CITY           SKY/WX    TMP DP  RH WIND       PRES   REMARKS
MEMPHIS INTL   PTCLDY    73  58  59 VRB3      30.06S
NWS MEMPHIS      N/A     64 N/A N/A MISG        N/A
JACKSON        CLEAR     61  59  93 CALM      30.07F
DYERSBURG      FAIR     N/A N/A N/A MISG        N/A
UNION CITY     CLEAR     61  61 100 CALM      30.07S
PARIS          CLEAR     61  57  88 CALM      30.09S
LEXINGTON      CLEAR     61  61 100 CALM      30.07S
$$

TNZ008-025-027-028-033-062-065-066-280500-
NORTH MIDDLE TENNESSEE

CITY           SKY/WX    TMP DP  RH WIND       PRES   REMARKS
NASHVILLE      CLEAR     70  56  61 E7        30.10F
CLARKSVILLE    CLEAR     64  56  75 E5        30.09F
COOKEVILLE     CLEAR     63  61  94 CALM      30.11F
CROSSVILLE     CLEAR     65  56  72 NE3       30.16S
$$

TNZ061-075-076-078-094-096-097-280500-
SOUTH MIDDLE TENNESSEE

CITY           SKY/WX    TMP DP  RH WIND       PRES   REMARKS
FAYETTEVILLE   CLEAR     66  61  82 CALM      30.09F
TULLAHOMA      CLEAR     68  57  68 NE6       30.11F
WINCHESTER     CLEAR     63  61  94 CALM      30.10S
COLUMBIA       CLEAR     63  63 100 CALM      30.08S
SHELBYVILLE    CLEAR     64  61  88 CALM      30.11S
$$

TNZ017-018-042-046-047-280500-
NORTHEAST TENNESSEE

CITY           SKY/WX    TMP DP  RH WIND       PRES   REMARKS
TRI CITIES     PTCLDY    67  58  72 CALM      30.15S
ELIZABETHTON   PTCLDY    61  59  94 CALM      30.16R
$$

TNZ012-013-036-069-073-074-280500-
CENTRAL EAST TENNESSEE

CITY           SKY/WX    TMP DP  RH WIND       PRES   REMARKS
KNOXVILLE      MOCLDY    71  60  68 E6        30.11
OAK RIDGE      PTCLDY    70  58  65 E3        30.13S
GATLINBURG     MOCLDY    70  61  73 CALM      30.12R
$$

TNZ083-085-099-280500-
SOUTHEAST TENNESSEE

CITY           SKY/WX    TMP DP  RH WIND       PRES   REMARKS
CHATTANOOGA    PTCLDY    74  65  73 N7        30.09R
$$

SKY/WX REPORTED AS FAIR MEANS FEW OR NO CLOUDS BELOW
12 THOUSAND FEET.




USA.gov is the U.S. government's official web portal to all federal, state and local government web resources and services.